Flag for France Weather past 2 weeks in Nancy, France

Now
59 °F

Clear.


Feels Like: 58 °F
Forecast: 40 / 64 °F
Wind: 8 mph from Northeast

Location: Nancy / Ochey

Current Time: Sep 23, 2014 at 7:04:51 PM

Latest Report: Sep 23, 2014 at 6:30 PM


Visibility: N/A

Pressure: 30.07 "Hg

Humidity: 59%

Dew point: 45 °F

Location of NancyLocation

Historic Weather in Nancy — Graph

°F

Nancy temperature yesterday

Maximum temperature yesterday: 59 °F (at 2:00 PM)
Minimum temperature yesterday: 45 °F (at 7:00 AM)
Average temperature yesterday: 52 °F

Past Weeks' High & Low Weather Summary

 TemperatureHumidityPressure
High77 °F (Sep 16, 4:30 PM)100% (Sep 9, 4:00 AM)30.21 "Hg (Sep 9, 4:00 AM)
Low39 °F (Sep 23, 7:00 AM)47% (Sep 17, 5:00 PM)29.83 "Hg (Sep 17, 5:00 PM)
Average61 °F81%30.03 "Hg
* Reported Sep 8 6:00 PM — Sep 23 6:00 PM, Nancy, Weather by CustomWeather, © 2014

Note: Actual official high and low records may vary slightly from our data, if they occured in-between our weather recording intervals... More about our weather records

Advertising

Nancy weather history for previous 24 hours

 ConditionsComfort  
Time TempWeatherWind HumidityBarometerVisibility
6:00 PM
Sep 23
61 °FClear.7 mph52%30.04 "HgN/A
5:30 PM61 °FClear.8 mph52%30.07 "HgN/A
5:00 PM63 °FClear.8 mph49%30.07 "HgN/A
4:30 PM61 °FClear.9 mph52%30.07 "HgN/A
4:00 PM61 °FClear.9 mph52%30.07 "HgN/A
3:30 PM61 °FClear.8 mph55%30.09 "HgN/A
3:00 PM61 °FClear.12 mph63%30.09 "HgN/A
2:30 PM61 °FClear.12 mph55%30.09 "HgN/A
2:00 PM59 °FClear.10 mph55%30.09 "HgN/A
1:30 PM59 °FClear.14 mph55%30.12 "HgN/A
1:00 PM59 °FClear.10 mph63%30.12 "HgN/A
12:30 PM55 °FPassing clouds.9 mph72%30.12 "HgN/A
12:00 PM54 °FFog.7 mph77%30.15 "Hg3 mi
11:30 AM52 °FFog.7 mph82%30.15 "Hg3 mi
11:00 AM52 °FClear.7 mph82%30.15 "Hg5 mi
10:30 AM48 °FLight fog.6 mph100%30.18 "Hg4 mi
10:00 AM46 °FFog.3 mph100%30.18 "Hg0 mi
9:30 AM45 °FFog.1 mph100%30.18 "Hg0 mi
9:00 AM43 °FFog.1 mph100%30.18 "Hg0 mi
8:30 AM41 °FFog.No wind100%30.18 "Hg0 mi
8:00 AM41 °FFog.3 mph100%30.18 "Hg0 mi
7:30 AM39 °FFog.No wind100%30.18 "Hg0 mi
7:00 AM39 °FFog.No wind100%30.18 "Hg0 mi
6:30 AM41 °FFog.No wind93%30.18 "Hg0 mi
6:00 AM41 °FFog.No wind100%30.18 "Hg1 mi
5:30 AM43 °FFog.No wind93%30.18 "Hg0 mi
5:00 AM41 °FFog.1 mph100%30.18 "Hg1 mi
4:30 AM43 °FFog.1 mph100%30.18 "Hg1 mi
4:00 AM43 °FFog.1 mph100%30.18 "Hg2 mi
3:30 AM43 °FFog.2 mph100%30.18 "Hg1 mi
3:00 AM43 °FFog.1 mph93%30.18 "Hg2 mi
2:30 AM45 °FFog.No wind93%30.18 "Hg2 mi
2:00 AM45 °FFog.2 mph100%30.18 "Hg2 mi
1:30 AM45 °FFog.2 mph93%30.18 "Hg2 mi
1:00 AM45 °FFog.No wind93%30.18 "Hg3 mi
12:30 AM45 °FFog.2 mph100%30.18 "Hg3 mi
12:00 AM46 °FClear.3 mph93%30.18 "Hg4 mi
11:30 PM
Sep 22
46 °FClear.2 mph93%30.18 "Hg4 mi
11:00 PM48 °FClear.5 mph87%30.18 "Hg4 mi
10:30 PM50 °FPassing clouds.2 mph82%30.18 "Hg4 mi
10:00 PM50 °FClear.3 mph82%30.18 "Hg4 mi
9:30 PM50 °FClear.5 mph82%30.18 "Hg4 mi
9:00 PM52 °FClear.3 mph77%30.18 "Hg4 mi
8:30 PM52 °FClear.6 mph77%30.18 "Hg5 mi
8:00 PM52 °FClear.7 mph82%30.18 "Hg4 mi
7:30 PM54 °FClear.6 mph77%30.15 "Hg4 mi
7:00 PM55 °FClear.7 mph72%30.15 "Hg4 mi
Weather by CustomWeather, © 2014

See weather overviewHow to use our weather pages